Location: Aghk�ilisa
(40.0189°N, 45.0097°E)
Time: 04:50:41
(UTC+00:00)

Gbstr 26 Del rocket - Pass Details

Date: 21 October 2019
Orbit: 493 x 1264 km, 51.8° (Epoch: 14 November)

Event Time Altitude Azimuth Distance (km) Brightness Sun altitude
Rises 15:08:26 0° 308° (NW) 3,348 7.6 -11.4°
Reaches altitude 10° 15:10:46 10° 312° (NW) 2,525 6.8 -11.9°
Maximum altitude 15:16:45 58° 31° (NNE) 1,171 4.2 -13.0°
Enters shadow 15:22:26 17° 106° (ESE) 2,518 5.6 -14.1°
